Effingham, IL

9:21 PM CDT on May 23, 2017 (GMT -0500)
Effingham

Weather History for K1H2 - October, 2012

Change the Weather History Date:

Thursday, October 11, 2012

  Actual Average (KMTO) Record (KMTO)
Temperature  
Mean Temperature 48 °F -  
Max Temperature 64 °F 67 °F 87 °F (1962)
Min Temperature 32 °F 45 °F 30 °F (1964)
Degree Days  
Heating Degree Days 17    
Moisture  
Dew Point 35 °F    
Average Humidity 64    
Maximum Humidity 100    
Minimum Humidity 34    
Precipitation  
Precipitation 0.00 in - - ()
Sea Level Pressure  
Sea Level Pressure 30.22 in    
Wind  
Wind Speed 3 mph (South)    
Max Wind Speed 14 mph    
Max Gust Speed 18 mph    
Visibility 10 miles    
Events      
Averages and records for this station are not official NWS values.
T = Trace of Precipitation, MM = Missing Value Source: NWS Daily Summary

Daily Weather History Graph

Daily Weather History Graph

Search for Another Location

Airport or City:

Trip Planner

Search our weather history database for the weather conditions in past years. The results will help you decide how hot, cold, wet, or windy it might be!

Date:

Astronomy

Oct. 11, 2012 Rise Set
Actual Time 7:00 AM CDT 6:20 PM CDT
Civil Twilight 6:33 AM CDT 6:47 PM CDT
Nautical Twilight 6:02 AM CDT 7:18 PM CDT
Astronomical Twilight 5:31 AM CDT 7:49 PM CDT
Moon 2:40 AM CDT (10/11) 3:55 PM CDT (10/11)
Length of Visible Light 12h 13m
Length of Day
11h 20m
Waning Crescent, 18% of the Moon is Illuminated
Oct 11
Waning Crescent
Oct 15
New
Oct 21
First Quarter
Oct 29
Full
Nov 6
Last Quarter

Hourly Weather History & Observations

Time (CDT) Temp. Windchill Dew Point Humidity Pressure Visibility Wind Dir Wind Speed Gust Speed Precip Events Conditions
12:15 AM 34.7 °F - 32.4 °F 91% 30.24 in 10.0 mi Calm Calm - N/A   Clear
12:35 AM 34.0 °F - 32.0 °F 92% 30.24 in 10.0 mi Calm Calm - N/A   Clear
12:55 AM 33.8 °F - 32.0 °F 93% 30.24 in 10.0 mi Calm Calm - N/A   Clear
1:15 AM 33.8 °F - 32.0 °F 93% 30.24 in 10.0 mi Calm Calm - N/A   Clear
1:35 AM 33.3 °F - 31.5 °F 93% 30.24 in 10.0 mi Calm Calm - N/A   Clear
1:55 AM 33.8 °F - 31.6 °F 92% 30.24 in 10.0 mi Calm Calm - N/A   Clear
2:15 AM 33.8 °F - 32.0 °F 93% 30.24 in 10.0 mi Calm Calm - N/A   Clear
2:35 AM 33.1 °F - 31.5 °F 94% 30.24 in 10.0 mi Calm Calm - N/A   Clear
2:55 AM 33.8 °F 30.8 °F 31.3 °F 90% 30.24 in 10.0 mi SE 3.5 mph - N/A   Clear
3:15 AM 33.1 °F - 31.1 °F 92% 30.24 in 10.0 mi Calm Calm - N/A   Clear
3:35 AM 33.3 °F - 31.5 °F 93% 30.24 in 10.0 mi Calm Calm - N/A   Clear
3:55 AM 33.3 °F - 31.6 °F 94% 30.24 in 10.0 mi Calm Calm - N/A   Clear
4:15 AM 33.1 °F - 32.0 °F 96% 30.24 in 10.0 mi Calm Calm - N/A   Clear
4:35 AM 32.4 °F 29.1 °F 30.9 °F 94% 30.24 in 10.0 mi SE 3.5 mph - N/A   Clear
4:55 AM 32.0 °F - 30.4 °F 94% 30.24 in 10.0 mi Calm Calm - N/A   Clear
5:15 AM 32.9 °F - 31.1 °F 93% 30.25 in 10.0 mi Calm Calm - N/A   Clear
5:35 AM 32.9 °F - 31.1 °F 93% 30.25 in 10.0 mi Calm Calm - N/A   Clear
5:55 AM 32.9 °F - 30.6 °F 91% 30.25 in 10.0 mi Calm Calm - N/A   Clear
6:15 AM 33.3 °F - 30.9 °F 91% 30.25 in 10.0 mi Calm Calm - N/A   Clear
6:35 AM 34.2 °F - 30.9 °F 88% 30.26 in 10.0 mi Calm Calm - N/A   Clear
6:55 AM 33.8 °F - 30.2 °F 87% 30.26 in 10.0 mi Calm Calm - N/A   Clear
7:15 AM 32.0 °F - 32.0 °F 100% 30.26 in 10.0 mi Calm Calm - N/A   Clear
7:35 AM 33.3 °F - 31.8 °F 94% 30.26 in 10.0 mi Calm Calm - N/A   Clear
7:55 AM 36.7 °F 34.1 °F 33.4 °F 88% 30.27 in 10.0 mi SSE 3.5 mph - N/A   Clear
8:15 AM 40.3 °F 38.2 °F 32.9 °F 75% 30.27 in 5.0 mi South 3.5 mph - N/A   Haze
8:35 AM 43.3 °F 40.7 °F 33.3 °F 68% 30.27 in 10.0 mi South 4.6 mph - N/A   Clear
8:55 AM 45.1 °F 40.8 °F 32.7 °F 62% 30.27 in 10.0 mi South 8.1 mph - N/A   Clear
9:15 AM 47.3 °F - 33.6 °F 59% 30.27 in 10.0 mi South 6.9 mph - N/A   Clear
9:35 AM 50.0 °F - 34.9 °F 56% 30.27 in 10.0 mi South 5.8 mph - N/A   Clear
9:55 AM 51.3 °F - 34.9 °F 54% 30.27 in 10.0 mi SSW 9.2 mph - N/A   Clear
10:15 AM 52.9 °F - 34.2 °F 49% 30.26 in 10.0 mi South 10.4 mph - N/A   Clear
10:35 AM 54.5 °F - 34.3 °F 47% 30.26 in 10.0 mi South 6.9 mph - N/A   Clear
10:55 AM 55.2 °F - 33.8 °F 44% 30.26 in 10.0 mi SSW 8.1 mph - N/A   Clear
11:15 AM 56.1 °F - 33.6 °F 43% 30.26 in 10.0 mi SSW 9.2 mph - N/A   Clear
11:35 AM 56.8 °F - 32.5 °F 40% 30.26 in 10.0 mi South 9.2 mph - N/A   Clear
11:55 AM 58.1 °F - 33.4 °F 39% 30.26 in 10.0 mi SW 13.8 mph - N/A   Clear
12:15 PM 57.9 °F - 33.4 °F 40% 30.25 in 10.0 mi SW 10.4 mph 18.4 mph N/A   Clear
12:35 PM 58.5 °F - 33.1 °F 38% 30.24 in 10.0 mi SSW 9.2 mph - N/A   Clear
12:55 PM 59.5 °F - 33.8 °F 38% 30.23 in 10.0 mi SSW 8.1 mph - N/A   Clear
1:15 PM 60.1 °F - 32.7 °F 36% 30.21 in 10.0 mi SSW 9.2 mph - N/A   Clear
1:35 PM 59.9 °F - 33.6 °F 37% 30.20 in 10.0 mi SSW 8.1 mph - N/A   Clear
1:55 PM 61.2 °F - 34.3 °F 37% 30.19 in 10.0 mi SSW 9.2 mph - N/A   Clear
2:15 PM 62.6 °F - 33.8 °F 34% 30.18 in 10.0 mi South 8.1 mph - N/A   Clear
2:35 PM 62.8 °F - 34.7 °F 35% 30.18 in 10.0 mi SW 10.4 mph - N/A   Clear
2:55 PM 63.1 °F - 34.9 °F 35% 30.17 in 10.0 mi South 11.5 mph 16.1 mph N/A   Clear
3:15 PM 63.1 °F - 34.7 °F 35% 30.17 in 10.0 mi South 9.2 mph - N/A   Clear
3:35 PM 64.0 °F - 36.1 °F 36% 30.17 in 10.0 mi South 6.9 mph - N/A   Clear
3:55 PM 63.5 °F - 35.6 °F 35% 30.17 in 10.0 mi SSW 10.4 mph - N/A   Clear
4:15 PM 63.5 °F - 36.3 °F 36% 30.16 in 10.0 mi SSW 9.2 mph - N/A   Clear
4:35 PM 63.0 °F - 36.1 °F 37% 30.15 in 10.0 mi South 8.1 mph - N/A   Clear
4:55 PM 62.6 °F - 37.2 °F 39% 30.15 in 10.0 mi South 6.9 mph - N/A   Clear
5:15 PM 62.6 °F - 37.4 °F 39% 30.15 in 10.0 mi South 9.2 mph - N/A   Clear
5:35 PM 61.0 °F - 37.4 °F 42% 30.16 in 10.0 mi South 5.8 mph - N/A   Clear
5:55 PM 59.0 °F - 37.4 °F 45% 30.16 in 10.0 mi South 5.8 mph - N/A   Clear
6:15 PM 57.9 °F - 38.1 °F 48% 30.15 in 10.0 mi South 4.6 mph - N/A   Clear
6:35 PM 56.3 °F - 38.1 °F 51% 30.16 in 10.0 mi SSE 4.6 mph - N/A   Clear
6:55 PM 55.4 °F - 37.9 °F 52% 30.16 in 10.0 mi South 4.6 mph - N/A   Clear
7:15 PM 54.9 °F - 37.4 °F 52% 30.17 in 10.0 mi South 3.5 mph - N/A   Clear
7:35 PM 54.7 °F - 37.6 °F 53% 30.16 in 10.0 mi South 4.6 mph - N/A   Clear
7:55 PM 55.4 °F - 37.4 °F 51% 30.17 in 10.0 mi South 3.5 mph - N/A   Clear
8:15 PM 54.0 °F - 37.9 °F 55% 30.18 in 10.0 mi South 4.6 mph - N/A   Clear
8:35 PM 54.0 °F - 38.5 °F 56% 30.18 in 10.0 mi South 4.6 mph - N/A   Clear
9:15 PM 53.1 °F - 38.7 °F 58% 30.20 in 10.0 mi Calm Calm - N/A   Clear
9:55 PM 50.4 °F - 41.7 °F 72% 30.21 in 10.0 mi Calm Calm - N/A   Clear
10:15 PM 50.2 °F - 41.5 °F 72% 30.20 in 10.0 mi Calm Calm - N/A   Clear
10:35 PM 49.6 °F - 41.5 °F 74% 30.20 in 10.0 mi Calm Calm - N/A   Clear
10:55 PM 49.6 °F - 42.3 °F 76% 30.19 in 10.0 mi South 3.5 mph - N/A   Clear
11:15 PM 52.7 °F - 39.9 °F 62% 30.18 in 10.0 mi South 5.8 mph - N/A   Clear
11:35 PM 51.8 °F - 40.3 °F 65% 30.18 in 10.0 mi Calm Calm - N/A   Clear
11:55 PM 50.0 °F - 41.0 °F 71% 30.20 in 10.0 mi West 4.6 mph - N/A   Clear